TimeEST,TemperatureF,Dew PointF,Humidity,Sea Level PressureIn,VisibilityMPH,Wind Direction,Wind SpeedMPH,Gust SpeedMPH,PrecipitationIn,Events,Conditions,WindDirDegrees,DateUTC
7:15 AM,19.4,12.2,74,30.28,10.0,South,12.7,18.4,N/A,,Overcast,170,2013-12-25 12:15:00
7:35 AM,19.4,12.2,74,30.25,10.0,SSE,11.5,19.6,N/A,,Overcast,160,2013-12-25 12:35:00
7:55 AM,19.4,12.2,74,30.28,10.0,South,9.2,-,N/A,,Overcast,180,2013-12-25 12:55:00
8:15 AM,19.4,12.2,74,30.28,10.0,South,11.5,17.3,N/A,,Overcast,180,2013-12-25 13:15:00
8:35 AM,19.4,12.2,74,30.27,10.0,South,9.2,17.3,N/A,,Overcast,170,2013-12-25 13:35:00
8:55 AM,19.4,12.2,74,30.27,7.0,South,10.4,16.1,N/A,,Overcast,180,2013-12-25 13:55:00
9:15 AM,19.4,14.0,80,30.27,3.0,South,15.0,19.6,N/A,,Overcast,180,2013-12-25 14:15:00
9:35 AM,19.4,15.8,86,30.27,2.5,South,12.7,-,N/A,,Overcast,170,2013-12-25 14:35:00
9:55 AM,19.4,15.8,86,30.26,1.0,South,9.2,-,N/A,,Overcast,180,2013-12-25 14:55:00
10:15 AM,19.4,15.8,86,30.25,2.5,South,10.4,-,N/A,,Overcast,180,2013-12-25 15:15:00
10:35 AM,19.4,17.6,93,30.26,2.5,South,10.4,-,N/A,,Overcast,190,2013-12-25 15:35:00
10:55 AM,19.4,17.6,93,30.26,2.5,South,11.5,-,N/A,,Overcast,180,2013-12-25 15:55:00
11:15 AM,21.2,17.6,86,30.25,4.0,South,11.5,-,N/A,,Overcast,190,2013-12-25 16:15:00
11:35 AM,21.2,17.6,86,30.23,10.0,South,11.5,16.1,N/A,,Overcast,190,2013-12-25 16:35:00
11:55 AM,21.2,17.6,86,30.22,10.0,SSW,9.2,17.3,N/A,,Overcast,200,2013-12-25 16:55:00
12:15 PM,21.2,17.6,86,30.21,10.0,SSW,11.5,17.3,N/A,,Overcast,210,2013-12-25 17:15:00
12:35 PM,21.2,17.6,86,30.19,10.0,SSW,6.9,17.3,N/A,,Overcast,200,2013-12-25 17:35:00
12:55 PM,21.2,17.6,86,30.18,10.0,South,10.4,-,N/A,,Overcast,190,2013-12-25 17:55:00
1:15 PM,21.2,17.6,86,30.18,7.0,SSW,10.4,-,N/A,,Overcast,200,2013-12-25 18:15:00
1:35 PM,21.2,17.6,86,30.17,5.0,SSW,9.2,-,N/A,,Overcast,210,2013-12-25 18:35:00
1:55 PM,23.0,17.6,80,30.17,5.0,SSW,6.9,-,N/A,,Overcast,210,2013-12-25 18:55:00
2:15 PM,23.0,19.4,86,30.16,7.0,SW,9.2,-,N/A,,Overcast,220,2013-12-25 19:15:00
2:35 PM,23.0,17.6,80,30.15,7.0,SSW,11.5,-,N/A,,Overcast,210,2013-12-25 19:35:00
2:55 PM,23.0,19.4,86,30.15,10.0,SW,8.1,16.1,N/A,,Overcast,220,2013-12-25 19:55:00
3:15 PM,23.0,19.4,86,30.15,10.0,SW,8.1,-,N/A,,Overcast,220,2013-12-25 20:15:00
3:35 PM,23.0,19.4,86,30.15,10.0,SW,8.1,-,N/A,,Overcast,220,2013-12-25 20:35:00
3:55 PM,23.0,19.4,86,30.15,10.0,SW,9.2,-,N/A,,Overcast,230,2013-12-25 20:55:00
4:15 PM,23.0,19.4,86,30.15,10.0,SW,8.1,-,N/A,,Overcast,220,2013-12-25 21:15:00
4:35 PM,23.0,19.4,86,30.15,10.0,SSW,6.9,-,N/A,,Overcast,210,2013-12-25 21:35:00
4:55 PM,23.0,19.4,86,30.15,10.0,SW,5.8,-,N/A,,Overcast,220,2013-12-25 21:55:00
5:15 PM,23.0,19.4,86,30.15,10.0,SSW,4.6,-,N/A,,Overcast,200,2013-12-25 22:15:00
5:35 PM,23.0,19.4,86,30.15,10.0,SSW,5.8,-,N/A,,Overcast,210,2013-12-25 22:35:00
5:55 PM,23.0,19.4,86,30.15,10.0,SSW,5.8,-,N/A,,Overcast,210,2013-12-25 22:55:00
6:15 PM,23.0,21.2,93,30.14,10.0,SSW,8.1,-,N/A,,Overcast,200,2013-12-25 23:15:00
6:35 PM,23.0,21.2,93,30.14,10.0,SSW,5.8,-,N/A,,Overcast,200,2013-12-25 23:35:00
6:55 PM,24.8,21.2,86,30.14,10.0,SSW,5.8,-,N/A,,Overcast,200,2013-12-25 23:55:00
7:15 PM,24.8,21.2,86,30.13,7.0,SSW,5.8,-,N/A,,Overcast,200,2013-12-26 00:15:00
7:35 PM,24.8,21.2,86,30.13,7.0,SSW,6.9,-,N/A,,Overcast,200,2013-12-26 00:35:00
7:55 PM,24.8,21.2,86,30.13,7.0,SSW,6.9,-,N/A,,Overcast,200,2013-12-26 00:55:00
8:15 PM,24.8,21.2,86,30.12,7.0,South,6.9,-,N/A,,Overcast,190,2013-12-26 01:15:00
8:35 PM,24.8,21.2,86,30.12,7.0,South,5.8,-,N/A,,Overcast,190,2013-12-26 01:35:00
8:55 PM,24.8,21.2,86,30.12,7.0,South,6.9,-,N/A,,Overcast,190,2013-12-26 01:55:00
9:15 PM,24.8,23.0,93,30.11,7.0,SSW,8.1,-,N/A,,Overcast,200,2013-12-26 02:15:00
9:35 PM,24.8,23.0,93,30.10,7.0,South,8.1,-,N/A,,Overcast,190,2013-12-26 02:35:00
9:55 PM,24.8,23.0,93,30.10,7.0,South,6.9,-,N/A,,Overcast,190,2013-12-26 02:55:00
10:15 PM,24.8,23.0,93,30.09,7.0,SSW,6.9,-,N/A,,Overcast,200,2013-12-26 03:15:00
10:35 PM,24.8,23.0,93,30.09,4.0,SSW,6.9,-,N/A,,Overcast,210,2013-12-26 03:35:00
10:55 PM,24.8,23.0,93,30.08,4.0,SSW,9.2,-,N/A,,Overcast,200,2013-12-26 03:55:00
11:15 PM,24.8,24.8,100,30.07,3.0,SSW,6.9,-,N/A,,Overcast,210,2013-12-26 04:15:00
11:35 PM,24.8,24.8,100,30.07,4.0,SSW,6.9,-,N/A,,Overcast,200,2013-12-26 04:35:00
11:55 PM,24.8,24.8,100,30.06,4.0,South,6.9,-,N/A,,Overcast,190,2013-12-26 04:55:00